ONEWEB-0635, 56076

Orbit data source: Space-Track

ONEWEB-0635, 56076 is a payload satellite owned by One Web (NAA) (UK) in LEO that was launched on Sun, 26 Mar 2023 UTC via a LVM3 launch vehicle from the Sirharikota (SRI). Payloads include a variety of satellites, spacecraft, and rockets equipped with specific instruments for various scientific and technological missions. These include communications satellites like Starlink; space stations such as the ISS; scientific satellites like the Hubble; Earth observation satellites from companies like Planet Labs, Umbra, and HawkEye 360; GPS; miniature CubeSats for education and research; and military/defense satellites.

Loading next visibility...
ONEWEB-0635 details
Identifier
56076, 2023-043AG
Orbit
LEO
Last TLE update18 hours ago
Origin
Flag of UKOne Web (NAA) (UK)
ManufacturerOne Web
MissionOperational Commercial Communications
Bus & MotorARROW, Unknown motor
Mass148 kg wet, ~140 kg dry
Launch date (UTC)
2023-03-26 (2 years ago)
Launch vehicle
LVM3
Launch site
Sirharikota (SRI)
Object type
Payload
Rocket body
Debris
Shape & HBRTrap Box + 2 Pan, 5 m
Radar Cross Section2.032 m², Medium (>0.1 m² and < 1m²)

Expand to show TLE details & history

TLE from 18 hours ago
0 ONEWEB-0635
1 56076U 23043AG  25014.88951593 -.00000014  00000-0 -70880-4 0  9990
2 56076  87.9052   2.4465 0001525  76.0805 284.0495 13.15548511 88289
Epoch: 2025-01-14T21:20Z
Definitive object data (Epoch: 2025-01-14T21:20:54.176Z)
Latitude-0°
Longitude-72.36897°
Altitude1,204.386 km
Speed7.252 km/s
True Right ascension00h 09m 47s
True Declination0° 00' 00"
Sunlit
Object was in daylight at TLE epoch
Visualization TLE readout
Latitude-39.85838°
Longitude109.22692°
Altitude1,217.962 km
Speed7.244 km/s
Apparent Right ascension08h 38m 08s
Apparent Declination-62° 50' 29"
Sunlit
Object is in daylight
Visualization observer readout
Local Sidereal Time15:34:09
Azimuth215.912° SW
Elevation-40.968°
Doppler factor1
Orbital elements
Apogee altitude1,200.038 km
Perigee altitude1,197.727 km
Semi-major axis7,577.02 km
Eccentricity0.0001525
Inclination87.9052°
RAAN2.4465°
Arg. of periapsis76.0805°
True anomaly284.03255°
Mean anomaly284.0495°
Eccentric anomaly284.04102°
Mean motion3.29075 °/min
BSTAR-0.00007088
Orbital period109.4 mins
Loading maneuver chart data...
Loading historical data...
Loading historical data...
Loading historical data...
Loading historical data...
Loading historical data...
Loading historical data...
Loading historical data...

ONEWEB-0635 Visibility forecast

Observer location: undefined°, undefined

Span
Click to sort rows by Start time (UTC) header in descending order
Start Az.
Max El. time (UTC)
Max El. Az.
Max El.
End time (UTC)
End Az.
14 mins2025-01-15 22:59:23.044Z161.943° S2025-01-15 23:06:23.044Z86.077° E40.682°2025-01-15 23:13:23.044Z8.479° NNE
9 mins2025-01-16 00:52:23.044Z241.961° WSW2025-01-16 00:56:23.044Z283.016° WNW22.276°2025-01-16 01:01:23.044Z331.014° NNW
12 mins2025-01-16 10:28:23.044Z17.156° NNE2025-01-16 10:33:23.044Z74.516° E35.328°2025-01-16 10:40:23.044Z154.262° SSE
10 mins2025-01-16 12:18:23.044Z332.177° NNW2025-01-16 12:23:23.044Z276.163° WNW27.567°2025-01-16 12:28:23.044Z226.447° WSW
|